Location: Montreal
(45.5141°N, 73.5864°W)
Time: 12:59:43
(UTC-05:00)

ISS - Visible Passes

Search period start: 15 December 2017 00:00
Search period end: 25 December 2017 00:00
Orbit: 402 x 407 km, 51.6° (Epoch: 15 December)

Date Brightness Start Highest point End Pass type
(mag) Time Alt. Az. Time Alt. Az. Time Alt. Az.
15 Dec -1.2 18:08:45 10° W 18:11:14 20° SW 18:13:41 10° S visible
16 Dec -2.0 17:16:06 10° WNW 17:19:07 34° SW 17:22:08 10° SSE visible
18 Dec -0.6 17:08:37 10° W 17:10:46 16° SW 17:12:54 10° S visible
